| time (UTC) | temp C | wind direction | speed KPH | gust KPH | rain 1hr cm | rain 24hr cm | rain mn cm | humidity % | barometer mb |
| 20260831093015 | 20 | 153 | 1.6 | 8.0 | 0.00 | 0.00 | 0.00 | 92 | 1005.2 |
| 20260831091505 | 20 | 198 | 1.6 | 6.4 | 0.00 | 0.00 | 0.00 | 92 | 1005.3 |
| 20260831090005 | 20 | 157 | 1.6 | 4.8 | 0.00 | 0.00 | 0.00 | 91 | 1005.2 |
| 20260831084507 | 20 | 164 | 0.0 | 8.0 | 0.00 | 0.00 | 0.00 | 91 | 1005.0 |
| 20260831083124 | 20 | 190 | 3.2 | 8.0 | 0.00 | 0.00 | 0.00 | 91 | 1004.9 |
| 20260831081517 | 20 | 132 | 3.2 | 6.4 | 0.00 | 0.00 | 0.00 | 90 | 1004.9 |
| 20260831080129 | 21 | 178 | 1.6 | 8.0 | 0.00 | 0.00 | 0.00 | 90 | 1004.9 |
| 20260831074513 | 21 | 166 | 1.6 | 9.7 | 0.00 | 0.00 | 0.00 | 89 | 1005.0 |
| 20260831073124 | 21 | 191 | 1.6 | 11.3 | 0.00 | 0.00 | 0.00 | 89 | 1005.0 |
| 20260831071516 | 21 | 111 | 4.8 | 16.1 | 0.00 | 0.00 | 0.00 | 89 | 1004.9 |
| 20260831070019 | 21 | 150 | 3.2 | 14.5 | 0.00 | 0.00 | 0.00 | 89 | 1005.1 |
| 20260831064511 | 21 | 116 | 6.4 | 14.5 | 0.00 | 0.00 | 0.00 | 88 | 1005.5 |
| 20260831063005 | 21 | 126 | 4.8 | 12.9 | 0.00 | 0.00 | 0.00 | 87 | 1005.6 |
| 20260831061515 | 22 | 141 | 4.8 | 14.5 | 0.00 | 0.00 | 0.00 | 87 | 1005.8 |
| 20260831060017 | 22 | 169 | 4.8 | 14.5 | 0.00 | 0.00 | 0.00 | 87 | 1005.9 |
| 20260831054519 | 22 | 180 | 6.4 | 14.5 | 0.00 | 0.00 | 0.00 | 87 | 1005.8 |
| 20260831053013 | 22 | 108 | 4.8 | 14.5 | 0.00 | 0.00 | 0.00 | 86 | 1006.0 |
| 20260831051518 | 22 | 153 | 4.8 | 14.5 | 0.00 | 0.00 | 0.00 | 87 | 1006.2 |
| 20260831050002 | 22 | 128 | 8.0 | 14.5 | 0.00 | 0.00 | 0.00 | 87 | 1006.4 |
| 20260831044512 | 22 | 131 | 3.2 | 12.9 | 0.00 | 0.00 | 0.00 | 87 | 1006.6 |
| 20260831043121 | 22 | 118 | 3.2 | 9.7 | 0.00 | 0.00 | 0.00 | 88 | 1006.9 |
| 20260831040128 | 21 | 118 | 3.2 | 6.4 | 0.00 | 0.00 | 0.00 | 90 | 1006.9 |
| 20260831034504 | 21 | 102 | 1.6 | 6.4 | 0.00 | 0.00 | 0.00 | 90 | 1006.8 |
| 20260831033126 | 22 | 99 | 1.6 | 4.8 | 0.00 | 0.00 | 0.00 | 89 | 1006.8 |
| 20260831031507 | 22 | 100 | 1.6 | 6.4 | 0.00 | 0.00 | 0.00 | 89 | 1006.8 |
| 20260831030009 | 22 | 99 | 3.2 | 6.4 | 0.00 | 0.00 | 0.00 | 88 | 1006.7 |
| 20260831024622 | 22 | 90 | 1.6 | 6.4 | 0.00 | 0.00 | 0.00 | 87 | 1006.6 |
| 20260831023007 | 22 | 58 | 3.2 | 12.9 | 0.00 | 0.00 | 0.00 | 87 | 1006.7 |
| 20260831021630 | 22 | 93 | 4.8 | 16.1 | 0.00 | 0.00 | 0.00 | 87 | 1006.5 |
| 20260831020006 | 23 | 98 | 8.0 | 16.1 | 0.00 | 0.00 | 0.00 | 86 | 1006.4 |
| 20260831014515 | 23 | 92 | 9.7 | 14.5 | 0.00 | 0.00 | 0.00 | 85 | 1006.4 |
| 20260831013010 | 23 | 88 | 6.4 | 14.5 | 0.00 | 0.00 | 0.00 | 85 | 1006.3 |
| 20260831011510 | 23 | 63 | 4.8 | 16.1 | 0.00 | 0.00 | 0.00 | 85 | 1006.3 |
| 20260831010007 | 23 | 81 | 6.4 | 20.9 | 0.00 | 0.00 | 0.00 | 84 | 1006.2 |
| 20260831004628 | 23 | 71 | 8.0 | 16.1 | 0.00 | 0.00 | 0.00 | 83 | 1006.4 |
| 20260831003124 | 24 | 46 | 4.8 | 16.1 | 0.00 | 0.00 | 0.00 | 82 | 1006.5 |
| 20260831001621 | 24 | 109 | 4.8 | 16.1 | 0.00 | 0.00 | 0.00 | 82 | 1006.6 |
| 20260831000018 | 24 | 92 | 8.0 | 19.3 | 0.00 | 0.00 | 0.00 | 81 | 1006.6 |
| 20260830234507 | 25 | 87 | 9.7 | 17.7 | 0.00 | 0.00 | 0.00 | 79 | 1006.6 |
| 20260830231504 | 25 | 92 | 11.3 | 24.1 | 0.00 | 0.00 | 0.00 | 78 | 1006.6 |
| 20260830230021 | 26 | 110 | 8.0 | 20.9 | 0.00 | 0.00 | 0.00 | 77 | 1006.6 |
| 20260830224515 | 25 | 121 | 9.7 | 20.9 | 0.00 | 0.00 | 0.00 | 79 | 1006.7 |
| 20260830223013 | 25 | 69 | 8.0 | 22.5 | 0.00 | 0.00 | 0.00 | 79 | 1006.7 |
| 20260830221505 | 25 | 110 | 14.5 | 20.9 | 0.00 | 0.00 | 0.00 | 79 | 1007.0 |
| 20260830220015 | 25 | 88 | 9.7 | 20.9 | 0.00 | 0.00 | 0.00 | 79 | 1007.0 |
| 20260830214624 | 25 | 111 | 9.7 | 20.9 | 0.00 | 0.00 | 0.00 | 78 | 1007.2 |
| 20260830213020 | 25 | 145 | 17.7 | 25.7 | 0.00 | 0.00 | 0.00 | 78 | 1007.1 |
| 20260830211629 | 25 | 117 | 12.9 | 27.4 | 0.00 | 0.00 | 0.00 | 78 | 1007.1 |
| 20260830210013 | 25 | 88 | 12.9 | 25.7 | 0.00 | 0.00 | 0.00 | 76 | 1007.1 |
| 20260830204636 | 25 | 98 | 9.7 | 24.1 | 0.00 | 0.00 | 0.00 | 78 | 1006.9 |
| 20260830203013 | 26 | 81 | 8.0 | 17.7 | 0.00 | 0.00 | 0.00 | 79 | 1007.0 |
| 20260830201643 | 25 | 94 | 17.7 | 27.4 | 0.00 | 0.00 | 0.00 | 78 | 1007.2 |
| 20260830200002 | 25 | 92 | 12.9 | 24.1 | 0.00 | 0.00 | 0.00 | 78 | 1007.3 |
| 20260830194513 | 25 | 87 | 11.3 | 24.1 | 0.00 | 0.00 | 0.00 | 77 | 1007.5 |
| 20260830193011 | 25 | 107 | 9.7 | 22.5 | 0.00 | 0.00 | 0.00 | 79 | 1008.1 |
| 20260830191507 | 24 | 83 | 11.3 | 24.1 | 0.00 | 0.00 | 0.00 | 80 | 1008.4 |
| 20260830190015 | 23 | 114 | 8.0 | 20.9 | 0.00 | 0.00 | 0.00 | 81 | 1008.4 |
| 20260830184521 | 23 | 107 | 8.0 | 20.9 | 0.00 | 0.00 | 0.00 | 83 | 1008.5 |
| 20260830183128 | 23 | 101 | 6.4 | 19.3 | 0.00 | 0.00 | 0.00 | 82 | 1008.6 |
| 20260830181513 | 23 | 106 | 11.3 | 25.7 | 0.00 | 0.00 | 0.00 | 80 | 1008.5 |
| 20260830180126 | 23 | 106 | 9.7 | 24.1 | 0.00 | 0.00 | 0.00 | 81 | 1008.3 |
| 20260830174627 | 23 | 83 | 16.1 | 27.4 | 0.00 | 0.00 | 0.00 | 80 | 1008.6 |
| 20260830173010 | 23 | 94 | 6.4 | 22.5 | 0.00 | 0.00 | 0.00 | 82 | 1008.4 |
| 20260830170017 | 22 | 72 | 9.7 | 24.1 | 0.00 | 0.00 | 0.00 | 83 | 1008.1 |
| 20260830164508 | 22 | 79 | 9.7 | 24.1 | 0.00 | 0.03 | 0.00 | 83 | 1008.2 |
| 20260830163006 | 22 | 101 | 9.7 | 19.3 | 0.00 | 0.03 | 0.00 | 83 | 1008.2 |
| 20260830161510 | 22 | 70 | 11.3 | 25.7 | 0.00 | 0.03 | 0.00 | 83 | 1008.5 |
| 20260830160124 | 21 | 26 | 6.4 | 17.7 | 0.00 | 0.03 | 0.00 | 86 | 1008.7 |
| 20260830154513 | 21 | 32 | 11.3 | 19.3 | 0.00 | 0.03 | 0.00 | 87 | 1008.4 |
| 20260830153013 | 20 | 66 | 11.3 | 20.9 | 0.00 | 0.03 | 0.00 | 88 | 1008.5 |
| 20260830151502 | 20 | 16 | 9.7 | 19.3 | 0.00 | 0.03 | 0.00 | 90 | 1008.7 |
| 20260830150017 | 20 | 32 | 8.0 | 17.7 | 0.00 | 0.03 | 0.00 | 91 | 1008.9 |
| 20260830144626 | 20 | 54 | 4.8 | 16.1 | 0.00 | 0.38 | 0.00 | 91 | 1008.7 |
| 20260830143004 | 19 | 90 | 9.7 | 17.7 | 0.00 | 0.38 | 0.00 | 92 | 1008.5 |
| 20260830141508 | 18 | 49 | 8.0 | 17.7 | 0.00 | 0.38 | 0.00 | 92 | 1008.5 |
| 20260830140016 | 18 | 59 | 4.8 | 17.7 | 0.00 | 0.38 | 0.00 | 93 | 1008.2 |
| 20260830134519 | 18 | 60 | 4.8 | 16.1 | 0.00 | 1.60 | 0.00 | 93 | 1008.1 |
| 20260830133130 | 18 | 109 | 6.4 | 22.5 | 0.00 | 1.60 | 0.00 | 93 | 1007.9 |
| 20260830131522 | 18 | 103 | 9.7 | 17.7 | 0.00 | 1.60 | 0.00 | 93 | 1008.6 |
| 20260830130014 | 18 | 72 | 4.8 | 16.1 | 0.00 | 1.60 | 0.00 | 93 | 1008.6 |
| 20260830124629 | 18 | 15 | 6.4 | 16.1 | 0.00 | 2.39 | 0.00 | 93 | 1008.6 |
| 20260830123002 | 18 | 70 | 6.4 | 19.3 | 0.00 | 2.39 | 0.00 | 93 | 1008.4 |
| 20260830121515 | 18 | 69 | 8.0 | 20.9 | 0.00 | 2.39 | 0.00 | 93 | 1008.1 |
| 20260830120003 | 17 | 20 | 4.8 | 14.5 | 0.00 | 2.39 | 0.00 | 93 | 1008.6 |
| 20260830114512 | 17 | 29 | 3.2 | 8.0 | 0.00 | 2.59 | 0.00 | 93 | 1008.3 |
| 20260830113128 | 17 | 52 | 3.2 | 8.0 | 0.00 | 2.59 | 0.00 | 93 | 1008.3 |
| 20260830111516 | 17 | 23 | 1.6 | 8.0 | 0.00 | 2.59 | 0.00 | 93 | 1008.1 |
| 20260830110016 | 17 | 66 | 1.6 | 8.0 | 0.00 | 2.59 | 0.00 | 93 | 1008.0 |
| 20260830104507 | 18 | 59 | 1.6 | 9.7 | 0.00 | 2.59 | 0.00 | 93 | 1008.2 |
| 20260830103011 | 18 | 55 | 3.2 | 14.5 | 0.00 | 2.59 | 0.00 | 93 | 1008.0 |
| 20260830101511 | 18 | 51 | 4.8 | 9.7 | 0.00 | 2.59 | 0.00 | 93 | 1007.8 |
| 20260830100010 | 18 | 55 | 4.8 | 11.3 | 0.00 | 2.59 | 0.00 | 93 | 1008.0 |
| 20260830094627 | 18 | 50 | 3.2 | 11.3 | 0.00 | 2.62 | 0.00 | 93 | 1008.0 |